Tracking 20232 objects as of 18-Jan-2020
HD Live streaming from Space Station
objects crossing your sky now

METEOR 2-17 DEB

Track METEOR 2-17 DEB now!
10-day predictions


NORAD ID: 31397
Int'l Code: 1988-005S
Perigee: 922.2 km
Apogee: 934.1 km
Inclination: 82.5 °
Period: 103.4 minutes
Semi major axis: 7299 km
RCS: 0.0107 m2 (small)
Launch date: January 30, 1988
Source: Commonwealth of Independent States (former USSR) (CIS)
Launch site: PLESETSK MISSILE AND SPACE COMPLEX (PKMTR)

Note: This is SATELLITE DEBRIS
aabbcc
Your satellite tracking list
Your tracking list is empty




NASA's NSSDC Master Catalog

Two Line Element Set (TLE):
1 31397U 88005S   20016.94635936  .00000560  00000-0  42602-3 0  9996
2 31397  82.5400   9.6118 0008119  98.6772 291.4608 13.92178626668800
Source of the keplerian elements: AFSPC